QPF
0.06 0.05 0.04 0.03 0.03 0.02 0.03 0.06 0.07 0.06 0.06 0.06 0.04 0.04 0.06 0.03 0.01 0.01 0.01 0.02 0.02 0.02 0.02 0.01 0.01 0.02 0.02 0.02 0.01 0.01 0.01 0.02 0.01 0.01 0.01 0.01 0.01 0.01 0.02 0.02 0.02 0.01 0.02
0.05 0.05 0.03 0.03 0.02 0.01 0.02 0.03 0.04 0.05 0.06 0.07 0.07 0.06 0.07 0.05 0.02 0.02 0.02 0.02 0.02 0.01 0.01 0.01 0.01 0.01 0.01 0.02 0.02 0.02 0.01 0.01 0.01 0.02 0.02 0.01 0.01 0.02 0.02 0.02 0.03 0.02 0.02
0.04 0.04 0.03 0.02 0.01 0.01 0.01 0.01 0.03 0.04 0.06 0.07 0.07 0.07 0.08 0.06 0.02 0.01 0.01 0.01 0.01 0.01 0.01 0.00 0.00 0.00 0.01 0.01 0.02 0.02 0.01 0.01 0.01 0.01 0.02 0.01 0.01 0.02 0.03 0.03 0.03 0.02 0.02
0.03 0.03 0.03 0.02 0.01 0.00 0.01 0.01 0.02 0.03 0.05 0.06 0.09 0.09 0.08 0.08 0.02 0.01 0.00 0.01 0.01 0.01 0.01 0.01 0.00 0.01 0.01 0.02 0.02 0.03 0.02 0.02 0.01 0.01 0.01 0.01 0.01 0.01 0.03 0.03 0.03 0.02 0.01
0.02 0.02 0.02 0.02 0.02 0.01 0.00 0.01 0.01 0.03 0.05 0.06 0.07 0.10 0.11 0.10 0.04 0.01 0.00 0.00 0.01 0.01 0.01 0.01 0.01 0.01 0.01 0.01 0.02 0.02 0.01 0.01 0.01 0.01 0.01 0.00 0.00 0.01 0.02 0.02 0.02 0.01 0.01
0.02 0.01 0.01 0.01 0.01 0.00 0.01 0.01 0.01 0.01 0.03 0.05 0.07 0.08 0.11 0.11 0.08 0.02 0.01 0.01 0.01 0.01 0.00 0.00 0.00 0.00 0.00 0.01 0.01 0.01 0.01 0.01 0.01 0.00 0.00 0.00 0.00 0.01 0.01 0.02 0.01 0.01 0.00
0.02 0.01 0.01 0.00 0.00 0.01 0.01 0.00 0.01 0.01 0.01 0.02 0.03 0.05 0.08 0.09 0.08 0.04 0.02 0.01 0.01 0.01 0.01 0.00 0.01 0.00 0.00 0.01 0.01 0.01 0.01 0.01 0.01 0.00 0.00 0.00 0.00 0.01 0.01 0.01 0.01 0.01 0.00
0.03 0.01 0.01 0.00 0.00 0.00 0.01 0.01 0.01 0.01 0.01 0.01 0.02 0.04 0.05 0.07 0.08 0.05 0.02 0.01 0.01 0.01 0.01 0.01 0.00 0.00 0.00 0.00 0.00 0.00 0.00 0.00 0.00 0.01 0.01 0.01 0.01 0.01 0.01 0.01 0.01 0.01 0.01
0.04 0.01 0.01 0.00 0.00 0.00 0.00 0.01 0.00 0.01 0.01 0.01 0.02 0.03 0.04 0.05 0.07 0.07 0.05 0.02 0.01 0.02 0.01 0.01 0.01 0.00 0.00 0.00 0.00 0.00 0.00 0.00 0.00 0.00 0.01 0.01 0.01 0.01 0.01 0.01 0.01 0.01 0.00
0.04 0.02 0.01 0.01 0.01 0.01 0.01 0.01 0.01 0.01 0.01 0.01 0.02 0.02 0.03 0.03 0.04 0.06 0.07 0.05 0.03 0.02 0.02 0.01 0.00 0.00 0.00 0.00 0.00 0.00 0.00 0.00 0.00 0.00 0.00 0.00 0.01 0.01 0.01 0.01 0.01 0.01 0.01
0.04 0.02 0.01 0.01 0.01 0.01 0.01 0.01 0.02 0.01 0.01 0.01 0.01 0.02 0.02 0.03 0.03 0.04 0.05 0.06 0.05 0.04 0.02 0.01 0.01 0.00 0.00 0.00 0.00 0.00 0.00 0.00 0.00 0.00 0.00 0.00 0.00 0.00 0.01 0.01 0.01 0.01 0.01
0.05 0.03 0.01 0.01 0.00 0.01 0.01 0.01 0.01 0.01 0.01 0.01 0.01 0.01 0.02 0.03 0.03 0.03 0.04 0.04 0.04 0.05 0.05 0.03 0.01 0.01 0.00 0.00 0.00 0.00 0.00 0.00 0.00 0.00 0.00 0.00 0.00 0.00 0.00 0.01 0.01 0.01 0.01
0.05 0.04 0.03 0.01 0.01 0.01 0.00 0.00 0.00 0.01 0.01 0.01 0.01 0.01 0.01 0.02 0.02 0.02 0.02 0.03 0.03 0.03 0.03 0.03 0.02 0.01 0.00 0.00 0.00 0.00 0.00 0.00 0.00 0.00 0.00 0.00 0.00 0.00 0.00 0.00 0.01 0.01 0.01
0.03 0.03 0.03 0.03 0.02 0.02 0.01 0.01 0.00 0.00 0.00 0.00 0.00 0.00 0.00 0.01 0.01 0.01 0.01 0.01 0.02 0.02 0.02 0.02 0.02 0.01 0.01 0.00 0.00 0.00 0.00 0.00 0.00 0.00 0.00 0.00 0.00 0.00 0.00 0.00 0.00 0.00 0.00
0.02 0.02 0.02 0.02 0.02 0.02 0.02 0.01 0.01 0.01 0.01 0.00 0.00 0.00 0.00 0.00 0.01 0.01 0.01 0.01 0.02 0.01 0.01 0.02 0.02 0.02 0.03 0.02 0.00 0.00 0.00 0.00 0.00 0.00 0.00 0.00 0.00 0.00 0.00 0.00 0.00 0.00 0.00
0.02 0.01 0.01 0.01 0.02 0.02 0.02 0.01 0.01 0.01 0.01 0.01 0.00 0.00 0.00 0.01 0.01 0.01 0.01 0.01 0.02 0.02 0.01 0.01 0.02 0.03 0.03 0.03 0.02 0.00 0.00 0.00 0.00 0.00 0.00 0.00 0.00 0.00 0.00 0.00 0.00 0.00 0.00
0.02 0.01 0.01 0.01 0.01 0.01 0.01 0.01 0.01 0.01 0.01 0.01 0.00 0.00 0.01 0.01 0.01 0.01 0.02 0.02 0.01 0.02 0.01 0.01 0.01 0.02 0.02 0.03 0.02 0.01 0.00 0.00 0.00 0.00 0.00 0.00 0.00 0.00 0.00 0.00 0.00 0.00 0.00
0.03 0.02 0.02 0.01 0.01 0.01 0.01 0.00 0.00 0.00 0.00 0.00 0.00 0.00 0.01 0.01 0.01 0.00 0.01 0.02 0.02 0.02 0.01 0.01 0.01 0.02 0.02 0.02 0.02 0.02 0.01 0.00 0.00 0.00 0.00 0.00 0.00 0.00 0.01 0.01 0.01 0.01 0.01
0.03 0.03 0.02 0.02 0.02 0.01 0.01 0.00 0.00 0.00 0.00 0.00 0.00 0.00 0.00 0.00 0.00 0.00 0.00 0.01 0.01 0.01 0.02 0.01 0.01 0.01 0.02 0.02 0.02 0.02 0.02 0.01 0.00 0.00 0.00 0.00 0.00 0.01 0.01 0.01 0.01 0.01 0.01
0.01 0.01 0.01 0.01 0.01 0.01 0.01 0.00 0.00 0.00 0.00 0.00 0.00 0.00 0.00 0.00 0.01 0.00 0.00 0.00 0.00 0.01 0.01 0.01 0.01 0.01 0.01 0.02 0.02 0.03 0.03 0.03 0.02 0.01 0.01 0.00 0.00 0.01 0.01 0.01 0.01 0.01 0.01
0.01 0.01 0.01 0.00 0.00 0.00 0.00 0.00 0.00 0.00 0.00 0.00 0.00 0.00 0.00 0.00 0.01 0.01 0.01 0.00 0.00 0.01 0.01 0.01 0.01 0.01 0.02 0.02 0.03 0.03 0.03 0.03 0.03 0.03 0.02 0.02 0.01 0.01 0.01 0.02 0.02 0.02 0.02
0.03 0.02 0.01 0.00 0.00 0.00 0.00 0.00 0.00 0.00 0.00 0.00 0.00 0.00 0.00 0.00 0.00 0.01 0.01 0.01 0.00 0.00 0.01 0.01 0.02 0.02 0.02 0.02 0.03 0.03 0.03 0.03 0.03 0.03 0.02 0.02 0.02 0.02 0.02 0.02 0.02 0.02 0.02
0.02 0.02 0.02 0.01 0.00 0.00 0.00 0.00 0.00 0.00 0.00 0.00 0.00 0.00 0.00 0.00 0.00 0.00 0.01 0.01 0.00 0.00 0.00 0.01 0.01 0.02 0.03 0.03 0.03 0.04 0.04 0.03 0.03 0.03 0.03 0.02 0.02 0.02 0.02 0.02 0.02 0.01 0.01
0.01 0.01 0.01 0.01 0.01 0.00 0.00 0.00 0.00 0.00 0.00 0.00 0.00 0.00 0.00 0.00 0.00 0.00 0.00 0.01 0.01 0.00 0.00 0.01 0.01 0.01 0.02 0.02 0.03 0.04 0.04 0.04 0.03 0.03 0.03 0.03 0.02 0.02 0.02 0.02 0.02 0.02 0.01
0.01 0.01 0.01 0.01 0.01 0.00 0.00 0.00 0.01 0.00 0.00 0.00 0.00 0.01 0.01 0.01 0.01 0.00 0.00 0.00 0.00 0.00 0.00 0.00 0.01 0.01 0.01 0.02 0.03 0.03 0.03 0.04 0.03 0.02 0.03 0.03 0.02 0.01 0.01 0.01 0.02 0.02 0.02
0.01 0.01 0.01 0.00 0.00 0.00 0.00 0.01 0.01 0.01 0.00 0.00 0.00 0.00 0.01 0.01 0.01 0.00 0.00 0.00 0.00 0.00 0.01 0.01 0.01 0.00 0.01 0.01 0.01 0.02 0.02 0.03 0.02 0.02 0.01 0.02 0.02 0.02 0.01 0.01 0.01 0.01 0.02
MSLP
1016.39 1016.64 1016.87 1017.09 1017.33 1017.58 1017.86 1018.13 1018.40 1018.66 1018.88 1019.08 1019.25 1019.41 1019.57 1019.73 1019.89 1020.05 1020.19 1020.28 1020.31 1020.27 1020.17 1020.01 1019.81 1019.62 1019.45 1019.34 1019.28 1019.29 1019.35 1019.43 1019.52 1019.59 1019.63 1019.65 1019.64 1019.63 1019.61 1019.60 1019.61 1019.62 1019.64
1016.39 1016.61 1016.82 1017.03 1017.28 1017.56 1017.87 1018.21 1018.54 1018.86 1019.15 1019.41 1019.64 1019.85 1020.04 1020.23 1020.41 1020.58 1020.73 1020.83 1020.87 1020.84 1020.75 1020.59 1020.39 1020.19 1020.02 1019.88 1019.81 1019.80 1019.84 1019.92 1020.00 1020.09 1020.15 1020.19 1020.20 1020.21 1020.20 1020.20 1020.20 1020.21 1020.22
1016.45 1016.64 1016.83 1017.03 1017.29 1017.59 1017.94 1018.33 1018.73 1019.11 1019.47 1019.78 1020.06 1020.30 1020.53 1020.73 1020.92 1021.10 1021.25 1021.35 1021.40 1021.39 1021.30 1021.16 1020.98 1020.79 1020.61 1020.46 1020.37 1020.34 1020.35 1020.40 1020.47 1020.55 1020.61 1020.66 1020.69 1020.71 1020.72 1020.72 1020.73 1020.73 1020.73
1016.61 1016.76 1016.92 1017.11 1017.36 1017.69 1018.07 1018.49 1018.93 1019.37 1019.77 1020.13 1020.44 1020.71 1020.95 1021.16 1021.35 1021.53 1021.67 1021.78 1021.84 1021.84 1021.78 1021.67 1021.52 1021.35 1021.18 1021.03 1020.93 1020.86 1020.84 1020.86 1020.90 1020.95 1021.00 1021.04 1021.08 1021.10 1021.11 1021.13 1021.13 1021.13 1021.13
1016.88 1016.99 1017.11 1017.28 1017.52 1017.84 1018.22 1018.66 1019.12 1019.57 1020.00 1020.38 1020.71 1020.99 1021.24 1021.45 1021.63 1021.80 1021.95 1022.06 1022.14 1022.17 1022.15 1022.08 1021.97 1021.83 1021.69 1021.55 1021.44 1021.35 1021.30 1021.27 1021.27 1021.29 1021.30 1021.33 1021.35 1021.37 1021.39 1021.41 1021.42 1021.42 1021.41
1017.24 1017.30 1017.38 1017.52 1017.73 1018.03 1018.39 1018.81 1019.25 1019.70 1020.11 1020.49 1020.81 1021.09 1021.33 1021.53 1021.71 1021.88 1022.03 1022.16 1022.26 1022.32 1022.35 1022.34 1022.29 1022.21 1022.10 1022.00 1021.89 1021.79 1021.71 1021.65 1021.60 1021.57 1021.55 1021.54 1021.54 1021.55 1021.56 1021.58 1021.59 1021.60 1021.59
1017.65 1017.67 1017.71 1017.82 1017.99 1018.24 1018.56 1018.93 1019.33 1019.73 1020.10 1020.44 1020.74 1021.00 1021.22 1021.42 1021.59 1021.76 1021.92 1022.07 1022.20 1022.31 1022.39 1022.45 1022.47 1022.46 1022.41 1022.35 1022.27 1022.18 1022.08 1021.98 1021.89 1021.82 1021.75 1021.71 1021.68 1021.67 1021.67 1021.69 1021.70 1021.71 1021.71
1018.04 1018.04 1018.07 1018.14 1018.28 1018.48 1018.74 1019.04 1019.36 1019.69 1020.00 1020.29 1020.54 1020.77 1020.97 1021.15 1021.32 1021.49 1021.66 1021.83 1022.00 1022.15 1022.30 1022.42 1022.52 1022.58 1022.61 1022.61 1022.57 1022.50 1022.40 1022.29 1022.17 1022.06 1021.95 1021.86 1021.80 1021.77 1021.75 1021.76 1021.77 1021.78 1021.79
1018.39 1018.39 1018.42 1018.47 1018.58 1018.73 1018.93 1019.16 1019.40 1019.65 1019.88 1020.10 1020.30 1020.49 1020.66 1020.82 1020.99 1021.16 1021.33 1021.52 1021.71 1021.91 1022.11 1022.29 1022.46 1022.60 1022.71 1022.77 1022.78 1022.75 1022.68 1022.57 1022.44 1022.30 1022.16 1022.04 1021.94 1021.87 1021.83 1021.82 1021.83 1021.84 1021.84
1018.66 1018.69 1018.73 1018.80 1018.89 1019.02 1019.16 1019.32 1019.49 1019.66 1019.82 1019.97 1020.12 1020.26 1020.40 1020.54 1020.69 1020.86 1021.03 1021.22 1021.43 1021.65 1021.87 1022.10 1022.32 1022.53 1022.70 1022.83 1022.90 1022.92 1022.89 1022.80 1022.67 1022.52 1022.37 1022.22 1022.09 1021.99 1021.92 1021.88 1021.87 1021.87 1021.87
1018.85 1018.93 1019.01 1019.10 1019.20 1019.32 1019.44 1019.55 1019.67 1019.78 1019.87 1019.97 1020.07 1020.17 1020.28 1020.39 1020.53 1020.67 1020.83 1021.00 1021.20 1021.41 1021.64 1021.89 1022.14 1022.38 1022.60 1022.78 1022.92 1022.99 1023.00 1022.95 1022.85 1022.70 1022.54 1022.37 1022.22 1022.09 1021.99 1021.93 1021.89 1021.87 1021.85
1018.96 1019.09 1019.22 1019.35 1019.49 1019.62 1019.73 1019.84 1019.92 1020.00 1020.06 1020.11 1020.18 1020.24 1020.32 1020.42 1020.52 1020.63 1020.76 1020.90 1021.06 1021.24 1021.45 1021.67 1021.92 1022.17 1022.41 1022.63 1022.81 1022.93 1022.99 1022.98 1022.91 1022.79 1022.63 1022.46 1022.29 1022.14 1022.02 1021.92 1021.86 1021.81 1021.77
1019.00 1019.18 1019.36 1019.54 1019.71 1019.87 1020.02 1020.13 1020.22 1020.28 1020.33 1020.37 1020.41 1020.46 1020.52 1020.59 1020.66 1020.74 1020.83 1020.92 1021.02 1021.15 1021.30 1021.48 1021.68 1021.91 1022.15 1022.38 1022.58 1022.73 1022.83 1022.86 1022.83 1022.74 1022.60 1022.44 1022.27 1022.11 1021.96 1021.84 1021.75 1021.67 1021.62
1018.98 1019.19 1019.41 1019.63 1019.85 1020.05 1020.23 1020.37 1020.48 1020.56 1020.62 1020.66 1020.71 1020.75 1020.80 1020.84 1020.89 1020.94 1020.98 1021.01 1021.05 1021.11 1021.18 1021.29 1021.44 1021.62 1021.82 1022.03 1022.23 1022.40 1022.52 1022.58 1022.58 1022.52 1022.42 1022.27 1022.11 1021.95 1021.79 1021.66 1021.55 1021.45 1021.37
1018.91 1019.12 1019.36 1019.61 1019.86 1020.10 1020.32 1020.50 1020.65 1020.76 1020.84 1020.91 1020.96 1021.01 1021.06 1021.10 1021.13 1021.15 1021.14 1021.13 1021.11 1021.09 1021.09 1021.13 1021.20 1021.31 1021.45 1021.62 1021.79 1021.95 1022.08 1022.16 1022.18 1022.15 1022.07 1021.95 1021.80 1021.65 1021.50 1021.36 1021.24 1021.14 1021.05
1018.78 1018.98 1019.22 1019.48 1019.75 1020.02 1020.27 1020.49 1020.67 1020.81 1020.93 1021.02 1021.10 1021.16 1021.22 1021.27 1021.29 1021.29 1021.27 1021.22 1021.15 1021.08 1021.01 1020.97 1020.96 1021.00 1021.07 1021.18 1021.30 1021.43 1021.54 1021.62 1021.65 1021.63 1021.57 1021.47 1021.35 1021.21 1021.08 1020.95 1020.84 1020.74 1020.65
1018.61 1018.78 1019.01 1019.26 1019.53 1019.81 1020.08 1020.32 1020.53 1020.70 1020.84 1020.96 1021.06 1021.15 1021.23 1021.29 1021.32 1021.33 1021.30 1021.23 1021.14 1021.03 1020.92 1020.82 1020.74 1020.71 1020.71 1020.75 1020.82 1020.90 1020.97 1021.02 1021.04 1021.02 1020.97 1020.88 1020.78 1020.66 1020.54 1020.43 1020.34 1020.26 1020.20
1018.41 1018.56 1018.76 1019.00 1019.26 1019.54 1019.80 1020.05 1020.27 1020.45 1020.61 1020.75 1020.87 1020.98 1021.07 1021.15 1021.21 1021.23 1021.22 1021.16 1021.06 1020.94 1020.80 1020.66 1020.54 1020.45 1020.39 1020.36 1020.36 1020.38 1020.40 1020.41 1020.40 1020.37 1020.31 1020.22 1020.12 1020.02 1019.92 1019.84 1019.77 1019.72 1019.68
1018.22 1018.36 1018.54 1018.76 1019.00 1019.26 1019.51 1019.74 1019.95 1020.13 1020.29 1020.43 1020.56 1020.68 1020.80 1020.90 1020.97 1021.02 1021.03 1020.99 1020.91 1020.79 1020.65 1020.49 1020.34 1020.20 1020.09 1020.01 1019.95 1019.91 1019.88 1019.84 1019.79 1019.72 1019.64 1019.54 1019.44 1019.34 1019.25 1019.18 1019.14 1019.12 1019.11
1018.07 1018.21 1018.38 1018.59 1018.81 1019.03 1019.26 1019.47 1019.65 1019.81 1019.96 1020.09 1020.21 1020.33 1020.45 1020.56 1020.66 1020.72 1020.75 1020.74 1020.68 1020.58 1020.44 1020.29 1020.12 1019.96 1019.82 1019.69 1019.58 1019.49 1019.40 1019.31 1019.22 1019.12 1019.00 1018.88 1018.76 1018.65 1018.56 1018.49 1018.47 1018.47 1018.49
1017.97 1018.13 1018.31 1018.50 1018.71 1018.91 1019.09 1019.27 1019.42 1019.55 1019.66 1019.77 1019.88 1019.99 1020.10 1020.21 1020.31 1020.38 1020.42 1020.43 1020.38 1020.30 1020.17 1020.02 1019.85 1019.68 1019.52 1019.36 1019.22 1019.09 1018.97 1018.84 1018.71 1018.57 1018.42 1018.26 1018.11 1017.98 1017.88 1017.81 1017.78 1017.78 1017.82
1017.94 1018.13 1018.32 1018.52 1018.70 1018.87 1019.03 1019.16 1019.28 1019.37 1019.45 1019.53 1019.60 1019.69 1019.78 1019.87 1019.96 1020.02 1020.06 1020.06 1020.02 1019.94 1019.82 1019.67 1019.51 1019.34 1019.17 1019.00 1018.85 1018.70 1018.56 1018.41 1018.25 1018.08 1017.90 1017.71 1017.54 1017.37 1017.24 1017.15 1017.10 1017.09 1017.13
1017.96 1018.19 1018.40 1018.59 1018.77 1018.92 1019.04 1019.14 1019.22 1019.27 1019.31 1019.36 1019.40 1019.45 1019.51 1019.57 1019.63 1019.66 1019.68 1019.66 1019.60 1019.51 1019.38 1019.23 1019.07 1018.90 1018.74 1018.58 1018.43 1018.29 1018.15 1018.00 1017.83 1017.65 1017.45 1017.24 1017.03 1016.84 1016.66 1016.53 1016.45 1016.42 1016.43
1018.02 1018.28 1018.50 1018.70 1018.86 1018.99 1019.09 1019.16 1019.20 1019.22 1019.24 1019.24 1019.25 1019.27 1019.29 1019.30 1019.32 1019.31 1019.28 1019.22 1019.13 1019.01 1018.87 1018.71 1018.55 1018.39 1018.24 1018.10 1017.98 1017.85 1017.73 1017.60 1017.44 1017.26 1017.06 1016.83 1016.60 1016.37 1016.16 1015.98 1015.85 1015.78 1015.75
1018.09 1018.36 1018.60 1018.79 1018.95 1019.06 1019.14 1019.18 1019.20 1019.19 1019.18 1019.16 1019.13 1019.11 1019.09 1019.06 1019.02 1018.96 1018.88 1018.77 1018.64 1018.48 1018.31 1018.14 1017.98 1017.82 1017.69 1017.58 1017.48 1017.40 1017.30 1017.20 1017.07 1016.90 1016.70 1016.47 1016.22 1015.96 1015.71 1015.48 1015.30 1015.18 1015.11
1018.15 1018.43 1018.66 1018.85 1018.99 1019.09 1019.15 1019.18 1019.17 1019.15 1019.11 1019.07 1019.01 1018.96 1018.90 1018.82 1018.73 1018.62 1018.48 1018.32 1018.14 1017.95 1017.75 1017.57 1017.40 1017.25 1017.14 1017.06 1016.99 1016.94 1016.88 1016.80 1016.70 1016.55 1016.35 1016.12 1015.85 1015.56 1015.28 1015.01 1014.79 1014.62 1014.50
Thickness
5663 5664 5665 5665 5667 5668 5669 5670 5672 5672 5672 5672 5671 5671 5671 5670 5668 5666 5663 5661 5661 5660 5659 5657 5656 5656 5655 5654 5653 5652 5651 5650 5649 5648 5647 5646 5645 5645 5644 5643 5643 5642 5642
5656 5658 5659 5659 5660 5662 5663 5664 5666 5666 5667 5666 5665 5664 5664 5663 5661 5659 5657 5655 5653 5652 5651 5650 5649 5648 5648 5647 5646 5645 5644 5643 5642 5641 5640 5640 5639 5638 5637 5636 5635 5635 5635
5649 5652 5653 5653 5654 5655 5657 5658 5659 5660 5660 5659 5658 5657 5656 5655 5654 5652 5650 5648 5646 5644 5643 5641 5640 5640 5639 5639 5638 5637 5636 5635 5635 5634 5633 5632 5631 5630 5629 5629 5628 5627 5626
5642 5645 5647 5647 5648 5649 5650 5652 5653 5653 5653 5652 5651 5649 5648 5646 5646 5644 5642 5640 5638 5637 5634 5632 5631 5631 5630 5630 5630 5629 5628 5627 5626 5625 5624 5623 5622 5622 5621 5620 5619 5618 5617
5635 5638 5640 5641 5641 5642 5643 5644 5645 5646 5645 5644 5642 5641 5640 5638 5637 5635 5634 5632 5630 5628 5627 5624 5622 5621 5621 5621 5620 5620 5619 5618 5617 5616 5615 5614 5613 5613 5612 5611 5610 5609 5608
5628 5631 5633 5634 5635 5636 5636 5637 5637 5637 5637 5636 5634 5632 5631 5630 5628 5627 5625 5623 5621 5620 5618 5616 5615 5613 5612 5611 5611 5611 5610 5609 5608 5607 5606 5605 5604 5604 5603 5602 5601 5599 5598
5621 5623 5625 5626 5627 5629 5630 5630 5630 5629 5628 5628 5628 5625 5623 5622 5621 5618 5617 5615 5613 5611 5610 5608 5607 5606 5604 5602 5601 5600 5600 5599 5599 5598 5597 5596 5595 5594 5593 5592 5591 5590 5588
5614 5616 5618 5619 5620 5621 5622 5622 5622 5622 5620 5620 5622 5621 5619 5616 5612 5610 5608 5606 5605 5603 5601 5599 5598 5596 5595 5594 5592 5590 5589 5589 5589 5588 5588 5586 5585 5584 5583 5582 5581 5580 5579
5607 5609 5610 5612 5613 5614 5615 5614 5614 5614 5613 5611 5611 5614 5615 5615 5608 5603 5601 5599 5596 5595 5594 5591 5589 5587 5586 5584 5583 5581 5579 5578 5578 5578 5578 5577 5575 5574 5573 5572 5571 5570 5568
5599 5601 5602 5604 5605 5606 5606 5606 5605 5606 5605 5604 5602 5601 5602 5604 5602 5599 5594 5591 5588 5587 5585 5583 5580 5578 5576 5575 5572 5570 5569 5568 5568 5567 5567 5567 5565 5564 5563 5562 5560 5559 5557
5591 5593 5594 5595 5596 5596 5597 5597 5596 5596 5596 5596 5595 5593 5592 5590 5591 5591 5590 5585 5581 5578 5575 5574 5572 5570 5568 5565 5563 5561 5559 5558 5557 5556 5556 5555 5554 5553 5552 5551 5549 5548 5546
5584 5584 5586 5586 5586 5587 5588 5588 5587 5586 5586 5586 5585 5584 5584 5583 5582 5582 5582 5578 5575 5571 5566 5564 5563 5561 5559 5556 5554 5551 5549 5548 5547 5546 5545 5544 5543 5542 5540 5539 5538 5536 5534
5578 5577 5577 5577 5577 5577 5578 5578 5577 5577 5576 5575 5574 5573 5572 5571 5570 5570 5569 5568 5566 5563 5559 5556 5554 5551 5549 5547 5544 5541 5539 5538 5536 5535 5534 5533 5531 5530 5528 5527 5526 5524 5523
5571 5570 5569 5569 5569 5568 5568 5568 5567 5566 5565 5565 5563 5562 5561 5559 5557 5557 5556 5555 5555 5555 5553 5550 5545 5541 5538 5536 5533 5531 5530 5527 5526 5524 5523 5522 5520 5518 5516 5515 5514 5512 5510
5564 5562 5562 5561 5560 5560 5559 5559 5558 5557 5555 5554 5552 5550 5549 5548 5545 5544 5542 5541 5541 5545 5547 5542 5536 5532 5527 5525 5522 5520 5519 5517 5515 5513 5512 5510 5509 5507 5505 5504 5502 5501 5499
5557 5556 5555 5553 5552 5551 5550 5549 5549 5547 5545 5544 5541 5540 5538 5536 5534 5531 5529 5528 5526 5527 5531 5530 5524 5520 5516 5513 5511 5509 5508 5506 5505 5503 5501 5499 5498 5496 5495 5493 5491 5489 5487
5550 5549 5547 5545 5544 5543 5541 5540 5538 5537 5535 5533 5531 5529 5527 5525 5523 5520 5517 5515 5514 5512 5514 5515 5510 5507 5504 5502 5500 5498 5496 5495 5495 5493 5491 5489 5487 5485 5484 5482 5480 5478 5475
5542 5541 5539 5537 5536 5534 5532 5531 5529 5527 5525 5523 5521 5518 5516 5513 5511 5508 5506 5503 5501 5499 5498 5500 5499 5495 5492 5490 5488 5487 5485 5484 5483 5482 5480 5478 5476 5474 5473 5470 5468 5466 5463
5533 5531 5530 5529 5527 5525 5522 5521 5519 5517 5515 5513 5510 5508 5505 5502 5500 5497 5494 5491 5488 5485 5483 5484 5485 5482 5480 5477 5476 5475 5473 5472 5471 5470 5469 5467 5465 5463 5461 5459 5456 5453 5451
5523 5523 5521 5520 5518 5515 5512 5510 5508 5506 5504 5502 5499 5497 5494 5492 5489 5485 5482 5479 5476 5473 5471 5469 5470 5470 5468 5465 5463 5463 5463 5461 5460 5458 5457 5455 5453 5451 5449 5447 5444 5441 5439
5514 5513 5511 5509 5507 5505 5503 5500 5498 5496 5494 5491 5488 5486 5483 5480 5477 5474 5471 5468 5464 5462 5459 5458 5457 5456 5456 5454 5452 5450 5449 5449 5449 5446 5445 5444 5442 5440 5438 5435 5432 5429 5427
5503 5502 5501 5499 5497 5495 5492 5489 5487 5485 5483 5481 5478 5475 5472 5468 5465 5461 5458 5456 5452 5450 5449 5446 5446 5445 5445 5441 5439 5436 5434 5435 5436 5434 5430 5431 5428 5428 5426 5423 5420 5417 5415
5493 5492 5490 5488 5488 5486 5482 5479 5476 5474 5472 5470 5467 5465 5462 5458 5454 5451 5448 5444 5441 5438 5435 5434 5433 5432 5431 5428 5424 5422 5419 5418 5419 5417 5414 5418 5416 5415 5413 5410 5407 5404 5402
5482 5481 5480 5478 5477 5476 5472 5469 5465 5462 5461 5459 5456 5453 5451 5448 5444 5440 5438 5435 5432 5428 5424 5421 5421 5419 5416 5413 5409 5407 5404 5403 5403 5401 5398 5401 5404 5402 5400 5398 5395 5392 5389
5472 5471 5469 5467 5466 5465 5461 5457 5453 5452 5450 5448 5444 5441 5439 5436 5433 5428 5425 5423 5421 5418 5413 5409 5406 5404 5401 5398 5395 5392 5391 5389 5391 5391 5386 5385 5389 5388 5387 5386 5383 5379 5377
5461 5459 5458 5456 5455 5453 5450 5446 5441 5441 5439 5437 5434 5430 5427 5424 5420 5416 5413 5411 5409 5406 5402 5399 5395 5392 5388 5385 5382 5380 5378 5376 5376 5377 5376 5371 5373 5370 5373 5374 5370 5367 5365